| time (UTC) | temp C | wind direction | speed KPH | gust KPH | rain 1hr cm | rain 24hr cm | rain mn cm | humidity % | barometer mb |
| 20260504215250 | 11 | 0 | 3.2 | 0.0 | 0.20 | 0.30 | 0.30 | 99 | |
| 20260504214250 | 11 | 0 | 0.0 | 0.0 | 0.23 | 0.28 | 0.28 | 99 | |
| 20260504213220 | 11 | 0 | 3.2 | 0.0 | 0.15 | 0.23 | 0.23 | 99 | |
| 20260504212150 | 11 | 0 | 6.4 | 0.0 | 0.15 | 0.15 | 0.15 | 98 | |
| 20260504211120 | 11 | 0 | 0.0 | 0.0 | 0.13 | 0.13 | 0.13 | 98 | |
| 20260504210120 | 11 | 0 | 1.6 | 0.0 | 0.08 | 0.08 | 0.08 | 97 | |
| 20260504205050 | 11 | 0 | 1.6 | 0.0 | 0.08 | 0.08 | 0.08 | 96 | |
| 20260504204050 | 11 | 0 | 3.2 | 0.0 | 0.05 | 0.05 | 0.05 | 95 | |
| 20260504203050 | 11 | 0 | 4.8 | 0.0 | 0.00 | 0.00 | 0.00 | 95 | |
| 20260504202020 | 12 | 0 | 4.8 | 0.0 | 0.00 | 0.00 | 0.00 | 93 | |
| 20260504201020 | 12 | 0 | 3.2 | 0.0 | 0.00 | 0.00 | 0.00 | 91 | |
| 20260504195950 | 12 | 0 | 3.2 | 0.0 | 0.00 | 0.00 | 0.00 | 89 | |
| 20260504194920 | 12 | 0 | 4.8 | 0.0 | 0.00 | 0.00 | 0.00 | 90 | |
| 20260504193920 | 12 | 0 | 6.4 | 0.0 | 0.00 | 0.00 | 0.00 | 86 | |
| 20260504192850 | 12 | 0 | 4.8 | 0.0 | 0.00 | 0.00 | 0.00 | 84 | |
| 20260504191820 | 12 | 0 | 1.6 | 0.0 | 0.00 | 0.00 | 0.00 | 86 | |
| 20260504190750 | 12 | 0 | 0.0 | 0.0 | 0.00 | 0.00 | 0.00 | 87 | |
| 20260504185720 | 12 | 0 | 0.0 | 0.0 | 0.00 | 0.00 | 0.00 | 88 | |
| 20260504184650 | 12 | 0 | 6.4 | 0.0 | 0.00 | 0.00 | 0.00 | 89 | |
| 20260504183620 | 13 | 0 | 6.4 | 0.0 | 0.00 | 0.00 | 0.00 | 87 | |
| 20260504182550 | 14 | 0 | 3.2 | 0.0 | 0.00 | 0.00 | 0.00 | 83 | |
| 20260504181520 | 13 | 0 | 6.4 | 0.0 | 0.00 | 0.00 | 0.00 | 79 | |
| 20260504180520 | 13 | 0 | 3.2 | 0.0 | 0.00 | 0.00 | 0.00 | 79 | |
| 20260504175450 | 13 | 0 | 8.0 | 0.0 | 0.00 | 0.00 | 0.00 | 77 | |
| 20260504174420 | 14 | 0 | 1.6 | 0.0 | 0.00 | 0.00 | 0.00 | 77 | |
| 20260504173420 | 14 | 0 | 3.2 | 0.0 | 0.00 | 0.00 | 0.00 | 76 | |
| 20260504172350 | 14 | 0 | 0.0 | 0.0 | 0.00 | 0.00 | 0.00 | 77 | |
| 20260504171350 | 13 | 0 | 3.2 | 0.0 | 0.00 | 0.00 | 0.00 | 78 | |
| 20260504170350 | 13 | 0 | 1.6 | 0.0 | 0.00 | 0.00 | 0.00 | 81 | |
| 20260504160250 | 12 | 0 | 3.2 | 0.0 | 0.00 | 0.00 | 0.00 | 82 | |
| 20260504151150 | 12 | 0 | 3.2 | 0.0 | 0.00 | 0.00 | 0.00 | 83 | |
| 20260504150120 | 12 | 0 | 3.2 | 0.0 | 0.00 | 0.00 | 0.00 | 85 | |
| 20260504141020 | 10 | 0 | 1.6 | 0.0 | 0.00 | 0.00 | 0.00 | 92 | |
| 20260504110620 | 9 | 0 | 1.6 | 0.0 | 0.00 | 0.00 | 0.00 | 95 | |
| 20260504100450 | 10 | 0 | 0.0 | 0.0 | 0.00 | 0.00 | 0.00 | 93 | |
| 20260504081220 | 10 | 0 | 1.6 | 0.0 | 0.00 | 0.00 | 0.00 | 91 | |
| 20260504080220 | 10 | 0 | 1.6 | 0.0 | 0.00 | 0.00 | 0.00 | 90 | |
| 20260504070120 | 11 | 0 | 1.6 | 0.0 | 0.00 | 0.00 | 0.00 | 87 | |
| 20260504045820 | 13 | 0 | 0.0 | 0.0 | 0.00 | 0.00 | 0.00 | 80 | |
| 20260504044750 | 13 | 0 | 1.6 | 0.0 | 0.00 | 0.00 | 0.00 | 79 | |
| 20260504043750 | 13 | 0 | 1.6 | 0.0 | 0.00 | 0.00 | 0.00 | 78 | |
| 20260504042720 | 13 | 0 | 3.2 | 0.0 | 0.00 | 0.00 | 0.00 | 77 | |
| 20260504041650 | 14 | 0 | 4.8 | 0.0 | 0.00 | 0.00 | 0.00 | 77 | |
| 20260504040620 | 14 | 0 | 1.6 | 0.0 | 0.00 | 0.00 | 0.00 | 77 | |
| 20260504035550 | 15 | 0 | 1.6 | 0.0 | 0.00 | 0.00 | 0.00 | 76 | |
| 20260504034550 | 15 | 0 | 8.0 | 0.0 | 0.00 | 0.00 | 0.00 | 76 | |
| 20260504033520 | 15 | 0 | 6.4 | 0.0 | 0.00 | 0.00 | 0.00 | 76 | |
| 20260504032450 | 15 | 0 | 3.2 | 0.0 | 0.00 | 0.00 | 0.00 | 76 | |
| 20260504031450 | 15 | 0 | 1.6 | 0.0 | 0.00 | 0.00 | 0.00 | 75 | |
| 20260504030420 | 15 | 0 | 4.8 | 0.0 | 0.00 | 0.00 | 0.00 | 75 | |
| 20260504025420 | 16 | 0 | 1.6 | 0.0 | 0.00 | 0.00 | 0.00 | 76 | |
| 20260504024350 | 16 | 0 | 3.2 | 0.0 | 0.00 | 0.00 | 0.00 | 75 | |
| 20260504023350 | 16 | 0 | 1.6 | 0.0 | 0.00 | 0.00 | 0.00 | 75 | |
| 20260504022320 | 16 | 0 | 3.2 | 0.0 | 0.00 | 0.00 | 0.00 | 75 | |
| 20260504021320 | 16 | 0 | 3.2 | 0.0 | 0.00 | 0.00 | 0.00 | 73 | |
| 20260504020250 | 16 | 0 | 1.6 | 0.0 | 0.00 | 0.00 | 0.00 | 73 | |
| 20260504015220 | 16 | 0 | 3.2 | 0.0 | 0.00 | 0.00 | 0.00 | 72 | |
| 20260504014150 | 16 | 0 | 1.6 | 0.0 | 0.00 | 0.00 | 0.00 | 73 | |
| 20260504013150 | 16 | 0 | 0.0 | 0.0 | 0.00 | 0.00 | 0.00 | 74 | |
| 20260504012150 | 16 | 0 | 3.2 | 0.0 | 0.00 | 0.00 | 0.00 | 73 | |
| 20260504011120 | 16 | 0 | 4.8 | 0.0 | 0.00 | 0.00 | 0.00 | 73 | |
| 20260504010120 | 16 | 0 | 4.8 | 0.0 | 0.00 | 0.00 | 0.00 | 73 | |
| 20260504005120 | 16 | 0 | 4.8 | 0.0 | 0.00 | 0.00 | 0.00 | 73 | |
| 20260504004120 | 16 | 0 | 6.4 | 0.0 | 0.00 | 0.00 | 0.00 | 75 | |
| 20260504003120 | 16 | 0 | 6.4 | 0.0 | 0.00 | 0.00 | 0.00 | 75 | |
| 20260504002050 | 16 | 0 | 11.3 | 0.0 | 0.00 | 0.00 | 0.00 | 73 | |
| 20260504001050 | 17 | 0 | 4.8 | 0.0 | 0.00 | 0.00 | 0.00 | 72 | |
| 20260504000020 | 17 | 0 | 0.0 | 0.0 | 0.00 | 0.00 | 0.00 | 72 | |
| 20260503234950 | 17 | 0 | 0.0 | 0.0 | 0.00 | 0.00 | 0.00 | 72 | |
| 20260503233920 | 16 | 0 | 0.0 | 0.0 | 0.00 | 0.00 | 0.00 | 72 | |
| 20260503232850 | 16 | 0 | 3.2 | 0.0 | 0.00 | 0.00 | 0.00 | 72 | |
| 20260503231820 | 16 | 0 | 3.2 | 0.0 | 0.00 | 0.00 | 0.00 | 72 | |
| 20260503230820 | 17 | 0 | 4.8 | 0.0 | 0.00 | 0.00 | 0.00 | 71 | |
| 20260503225750 | 17 | 0 | 1.6 | 0.0 | 0.00 | 0.00 | 0.00 | 70 | |
| 20260503224720 | 17 | 0 | 1.6 | 0.0 | 0.00 | 0.00 | 0.00 | 72 | |
| 20260503223650 | 16 | 0 | 0.0 | 0.0 | 0.00 | 0.00 | 0.00 | 72 | |
| 20260503222620 | 16 | 0 | 4.8 | 0.0 | 0.00 | 0.00 | 0.00 | 73 | |
| 20260503221620 | 16 | 0 | 4.8 | 0.0 | 0.00 | 0.00 | 0.00 | 73 | |
| 20260503220550 | 16 | 0 | 3.2 | 0.0 | 0.00 | 0.00 | 0.00 | 73 |